Location: Brede
(50.9167°N, 0.6000°E)
Time: 05:44:25
(UTC+00:00)

SR - Visible Passes

Search period start: 27 November 2020 00:00
Search period end: 07 December 2020 00:00
Orbit: 579 x 876 km, 66.7° (Epoch: 26 November)

Date Brightness Start Highest point End Pass type
(mag) Time Alt. Az. Time Alt. Az. Time Alt. Az.
27 Nov ? 17:52:04 10° SSE 17:53:53 17° SE 17:53:53 17° SE visible
27 Nov ? 19:32:23 10° SW 19:33:20 16° SW 19:33:20 16° SW visible
28 Nov ? 18:42:40 10° SSW 18:45:36 42° SSW 18:45:36 42° SSW visible
29 Nov ? 17:53:29 10° S 17:57:28 36° ESE 17:57:47 35° ESE visible
29 Nov ? 19:35:15 10° WSW 19:37:13 24° W 19:37:13 24° W visible
30 Nov ? 17:05:02 10° SSE 17:08:06 19° ESE 17:09:53 15° E visible
30 Nov ? 18:45:09 10° SW 18:49:19 68° WNW 18:49:19 68° WNW visible
01 Dec ? 17:55:30 10° SSW 17:59:50 65° ESE 18:01:21 40° ENE visible
01 Dec ? 19:38:24 10° W 19:40:46 23° WNW 19:40:46 23° WNW visible
02 Dec ? 17:06:21 10° S 17:10:17 34° ESE 17:13:18 17° ENE visible
02 Dec ? 18:47:59 10° WSW 18:52:14 42° NW 18:52:44 41° NNW visible
03 Dec ? 17:57:55 10° SW 18:02:21 73° NW 18:04:37 30° NNE visible
03 Dec ? 19:41:47 10° WNW 19:44:02 19° NW 19:44:02 19° NW visible
04 Dec ? 17:08:18 10° SSW 17:12:39 61° ESE 17:16:27 15° NE visible
04 Dec ? 18:51:06 10° W 18:55:04 29° NW 18:55:53 27° NNW visible
05 Dec ? 18:00:42 10° WSW 18:05:01 45° NW 18:07:39 23° NNE visible
05 Dec ? 19:45:19 10° WNW 19:47:04 15° NW 19:47:04 15° NW visible
06 Dec ? 17:10:42 10° SW 17:15:08 78° NW 17:19:24 13° NE visible
06 Dec ? 18:54:27 10° WNW 18:58:02 21° NNW 18:58:49 21° NNW visible
